Flag for Malaysia Weather past 2 weeks in Langkawi, Malaysia

81 °F

Partly cloudy.

Feels Like: 86 °F
Forecast: 78 / 88 °F
Wind: No wind

Location: Langkawi

Current Time: Nov 30, 2015 at 11:34:37 PM

Latest Report: Nov 30, 2015 at 11:00 PM

Visibility: N/A

Pressure: 29.89 "Hg

Humidity: 84%

Dew point: 75 °F

Location of LangkawiLocation

Historic Weather in Langkawi — Graph


Langkawi temperature yesterday

Maximum temperature yesterday: 93 °F (at 2:00 PM)
Minimum temperature yesterday: 77 °F (at 9:00 PM)
Average temperature yesterday: 84 °F

Past Weeks' High & Low Weather Summary

High93 °F (Nov 17, 2:00 PM)100% (Nov 19, 8:00 PM)29.95 "Hg (Nov 19, 8:00 PM)
Low77 °F (Nov 16, 4:00 AM)56% (Nov 28, 3:00 PM)29.68 "Hg (Nov 21, 4:00 PM)
Average84 °F80%29.80 "Hg
* Reported Nov 15 10:00 PM — Nov 30 10:00 PM, Langkawi, Weather by CustomWeather, © 2015

Note: Actual official high and low records may vary slightly from our data, if they occured in-between our weather recording intervals... More about our weather records


Langkawi weather history for previous 24 hours

Time TempWeatherWind HumidityBarometerVisibility
10:00 PM
Mon, Nov 30
81 °FPartly cloudy.3 mph79%29.86 "HgN/A
9:00 PM81 °FPartly cloudy.No wind84%29.83 "HgN/A
8:00 PM82 °FPartly cloudy.6 mph79%29.83 "HgN/A
7:00 PM82 °FBroken clouds.3 mph79%29.83 "HgN/A
6:00 PM84 °FMore clouds than sun.6 mph74%29.83 "HgN/A
3:00 PM88 °FBroken clouds.8 mph70%29.83 "HgN/A
2:00 PM90 °FMore clouds than sun.7 mph71%29.86 "HgN/A
1:00 PM90 °FBroken clouds.8 mph71%29.89 "HgN/A
12:00 PM90 °FBroken clouds.7 mph71%29.89 "HgN/A
11:00 AM86 °FBroken clouds.8 mph79%29.92 "HgN/A
10:00 AM84 °FBroken clouds.2 mph79%29.92 "HgN/A
9:00 AM81 °FBroken clouds.2 mph89%29.92 "HgN/A
8:00 AM79 °FBroken clouds.2 mph94%29.89 "HgN/A
7:00 AM79 °FLight rain. Partly cloudy.1 mph94%29.86 "HgN/A
6:00 AM79 °FPassing clouds.1 mph94%29.86 "HgN/A
5:00 AM79 °FPartly cloudy.1 mph94%29.86 "HgN/A
4:00 AM77 °FLight rain. Partly cloudy.1 mph94%29.86 "Hg5 mi
3:00 AM77 °FLight rain. Partly cloudy.3 mph100%29.89 "Hg6 mi
1:00 AM79 °FPartly cloudy.No wind89%29.92 "HgN/A
12:00 AM79 °FLight rain. Partly cloudy.1 mph94%29.92 "Hg6 mi
11:00 PM
Sun, Nov 29
79 °FLight rain. Partly cloudy.2 mph94%29.95 "Hg6 mi
Weather by CustomWeather, © 2015

See weather overviewHow to use our weather pages